owner,sensor,date,latitude,longitude,sea_surface_height_above_sea_level,qcFlag 
COMPS,ioos:station:USF.COMPS:BGC:1,2011-12-01T00:00:00Z,26.4040,-81.8810,0.063,1111122 
COMPS,ioos:station:USF.COMPS:BGC:1,2011-12-01T00:06:00Z,26.4040,-81.8810,0.054,1111122 
COMPS,ioos:station:USF.COMPS:BGC:1,2011-12-01T00:12:00Z,26.4040,-81.8810,0.042,1111122 
COMPS,ioos:station:USF.COMPS:BGC:1,2011-12-01T00:18:00Z,26.4040,-81.8810,0.037,1111122 
COMPS,ioos:station:USF.COMPS:BGC:1,2011-12-01T00:24:00Z,26.4040,-81.8810,0.027,1111122 
COMPS,ioos:station:USF.COMPS:BGC:1,2011-12-01T00:30:00Z,26.4040,-81.8810,0.022,1111122 
COMPS,ioos:station:USF.COMPS:BGC:1,2011-12-01T00:36:00Z,26.4040,-81.8810,0.007,1111122 
COMPS,ioos:station:USF.COMPS:BGC:1,2011-12-01T00:42:00Z,26.4040,-81.8810,-0.005,1111122 
COMPS,ioos:station:USF.COMPS:BGC:1,2011-12-01T00:48:00Z,26.4040,-81.8810,-0.016,1111122 
COMPS,ioos:station:USF.COMPS:BGC:1,2011-12-01T00:54:00Z,26.4040,-81.8810,-0.029,1111122 
COMPS,ioos:station:USF.COMPS:BGC:1,2011-12-01T01:00:00Z,26.4040,-81.8810,-0.039,1111122 
COMPS,ioos:station:USF.COMPS:BGC:1,2011-12-01T01:06:00Z,26.4040,-81.8810,-0.043,1111122 
COMPS,ioos:station:USF.COMPS:BGC:1,2011-12-01T01:12:00Z,26.4040,-81.8810,-0.05,1111122 
COMPS,ioos:station:USF.COMPS:BGC:1,2011-12-01T01:18:00Z,26.4040,-81.8810,-0.066,1111122 
COMPS,ioos:station:USF.COMPS:BGC:1,2011-12-01T01:24:00Z,26.4040,-81.8810,-0.075,1111122 
COMPS,ioos:station:USF.COMPS:BGC:1,2011-12-01T01:30:00Z,26.4040,-81.8810,-0.076,1111122 
COMPS,ioos:station:USF.COMPS:BGC:1,2011-12-01T01:36:00Z,26.4040,-81.8810,-0.09,1111122 
COMPS,ioos:station:USF.COMPS:BGC:1,2011-12-01T01:42:00Z,26.4040,-81.8810,-0.091,1111122 
COMPS,ioos:station:USF.COMPS:BGC:1,2011-12-01T01:48:00Z,26.4040,-81.8810,-0.091,1111122 
COMPS,ioos:station:USF.COMPS:BGC:1,2011-12-01T01:54:00Z,26.4040,-81.8810,-0.101,1111122 
COMPS,ioos:station:USF.COMPS:BGC:1,2011-12-01T02:00:00Z,26.4040,-81.8810,-0.114,1111122 
COMPS,ioos:station:USF.COMPS:BGC:1,2011-12-01T02:06:00Z,26.4040,-81.8810,-0.124,1111122 
COMPS,ioos:station:USF.COMPS:BGC:1,2011-12-01T02:12:00Z,26.4040,-81.8810,-0.127,1111122 
COMPS,ioos:station:USF.COMPS:BGC:1,2011-12-01T02:18:00Z,26.4040,-81.8810,-0.135,1111122 
COMPS,ioos:station:USF.COMPS:BGC:1,2011-12-01T02:24:00Z,26.4040,-81.8810,-0.141,1111122 
COMPS,ioos:station:USF.COMPS:BGC:1,2011-12-01T02:30:00Z,26.4040,-81.8810,-0.141,1111122 
COMPS,ioos:station:USF.COMPS:BGC:1,2011-12-01T02:36:00Z,26.4040,-81.8810,-0.146,1111122 
COMPS,ioos:station:USF.COMPS:BGC:1,2011-12-01T02:42:00Z,26.4040,-81.8810,-0.155,1111122 
COMPS,ioos:station:USF.COMPS:BGC:1,2011-12-01T02:48:00Z,26.4040,-81.8810,-0.157,1111122 
COMPS,ioos:station:USF.COMPS:BGC:1,2011-12-01T02:54:00Z,26.4040,-81.8810,-0.169,1111122 
COMPS,ioos:station:USF.COMPS:BGC:1,2011-12-01T03:00:00Z,26.4040,-81.8810,-0.173,1111122 
COMPS,ioos:station:USF.COMPS:BGC:1,2011-12-01T03:06:00Z,26.4040,-81.8810,-0.177,1111122 
COMPS,ioos:station:USF.COMPS:BGC:1,2011-12-01T03:12:00Z,26.4040,-81.8810,-0.174,1111122 
COMPS,ioos:station:USF.COMPS:BGC:1,2011-12-01T03:18:00Z,26.4040,-81.8810,-0.184,1111122 
COMPS,ioos:station:USF.COMPS:BGC:1,2011-12-01T03:24:00Z,26.4040,-81.8810,-0.183,1111122 
COMPS,ioos:station:USF.COMPS:BGC:1,2011-12-01T03:30:00Z,26.4040,-81.8810,-0.186,1111122 
COMPS,ioos:station:USF.COMPS:BGC:1,2011-12-01T03:36:00Z,26.4040,-81.8810,-0.199,1111122 
COMPS,ioos:station:USF.COMPS:BGC:1,2011-12-01T03:42:00Z,26.4040,-81.8810,-0.203,1111122 
COMPS,ioos:station:USF.COMPS:BGC:1,2011-12-01T03:48:00Z,26.4040,-81.8810,-0.209,1111122 
COMPS,ioos:station:USF.COMPS:BGC:1,2011-12-01T03:54:00Z,26.4040,-81.8810,-0.206,1111122 
COMPS,ioos:station:USF.COMPS:BGC:1,2011-12-01T04:00:00Z,26.4040,-81.8810,-0.208,1111122 
COMPS,ioos:station:USF.COMPS:BGC:1,2011-12-01T04:06:00Z,26.4040,-81.8810,-0.206,1111122 
COMPS,ioos:station:USF.COMPS:BGC:1,2011-12-01T04:12:00Z,26.4040,-81.8810,-0.203,1111122 
COMPS,ioos:station:USF.COMPS:BGC:1,2011-12-01T04:18:00Z,26.4040,-81.8810,-0.211,1111122 
COMPS,ioos:station:USF.COMPS:BGC:1,2011-12-01T04:24:00Z,26.4040,-81.8810,-0.22,1111122 
COMPS,ioos:station:USF.COMPS:BGC:1,2011-12-01T04:30:00Z,26.4040,-81.8810,-0.213,1111122 
COMPS,ioos:station:USF.COMPS:BGC:1,2011-12-01T04:36:00Z,26.4040,-81.8810,-0.212,1111122 
COMPS,ioos:station:USF.COMPS:BGC:1,2011-12-01T04:42:00Z,26.4040,-81.8810,-0.209,1111122 
COMPS,ioos:station:USF.COMPS:BGC:1,2011-12-01T04:48:00Z,26.4040,-81.8810,-0.206,1111122 
COMPS,ioos:station:USF.COMPS:BGC:1,2011-12-01T04:54:00Z,26.4040,-81.8810,-0.207,1111122 
COMPS,ioos:station:USF.COMPS:BGC:1,2011-12-01T07:00:00Z,26.4040,-81.8810,-0.09,1111122 
COMPS,ioos:station:USF.COMPS:BGC:1,2011-12-01T07:06:00Z,26.4040,-81.8810,-0.084,1111122 
COMPS,ioos:station:USF.COMPS:BGC:1,2011-12-01T07:12:00Z,26.4040,-81.8810,-0.074,1111122 
COMPS,ioos:station:USF.COMPS:BGC:1,2011-12-01T07:18:00Z,26.4040,-81.8810,-0.07,1111122 
COMPS,ioos:station:USF.COMPS:BGC:1,2011-12-01T07:24:00Z,26.4040,-81.8810,-0.064,1111122 
COMPS,ioos:station:USF.COMPS:BGC:1,2011-12-01T07:30:00Z,26.4040,-81.8810,-0.061,1111122 
COMPS,ioos:station:USF.COMPS:BGC:1,2011-12-01T07:36:00Z,26.4040,-81.8810,-0.051,1111122 
COMPS,ioos:station:USF.COMPS:BGC:1,2011-12-01T07:42:00Z,26.4040,-81.8810,-0.045,1111122 
COMPS,ioos:station:USF.COMPS:BGC:1,2011-12-01T07:48:00Z,26.4040,-81.8810,-0.038,1111122 
COMPS,ioos:station:USF.COMPS:BGC:1,2011-12-01T07:54:00Z,26.4040,-81.8810,-0.035,1111122 
COMPS,ioos:station:USF.COMPS:BGC:1,2011-12-01T08:00:00Z,26.4040,-81.8810,-0.029,1111122 
COMPS,ioos:station:USF.COMPS:BGC:1,2011-12-01T08:06:00Z,26.4040,-81.8810,-0.027,1111122 
COMPS,ioos:station:USF.COMPS:BGC:1,2011-12-01T08:12:00Z,26.4040,-81.8810,-0.022,1111122 
COMPS,ioos:station:USF.COMPS:BGC:1,2011-12-01T08:18:00Z,26.4040,-81.8810,-0.013,1111122 
COMPS,ioos:station:USF.COMPS:BGC:1,2011-12-01T08:24:00Z,26.4040,-81.8810,-0.011,1111122 
COMPS,ioos:station:USF.COMPS:BGC:1,2011-12-01T08:30:00Z,26.4040,-81.8810,-0.005,1111122 
COMPS,ioos:station:USF.COMPS:BGC:1,2011-12-01T08:36:00Z,26.4040,-81.8810,-0.005,1111122 
COMPS,ioos:station:USF.COMPS:BGC:1,2011-12-01T08:42:00Z,26.4040,-81.8810,-0.003,1111122 
COMPS,ioos:station:USF.COMPS:BGC:1,2011-12-01T08:48:00Z,26.4040,-81.8810,-0.004,1111122 
COMPS,ioos:station:USF.COMPS:BGC:1,2011-12-01T08:54:00Z,26.4040,-81.8810,-0.003,1111122 
COMPS,ioos:station:USF.COMPS:BGC:1,2011-12-01T09:00:00Z,26.4040,-81.8810,-0.004,1111122 
COMPS,ioos:station:USF.COMPS:BGC:1,2011-12-01T09:06:00Z,26.4040,-81.8810,0.0,1114422 
COMPS,ioos:station:USF.COMPS:BGC:1,2011-12-01T09:12:00Z,26.4040,-81.8810,-0.002,1111122 
COMPS,ioos:station:USF.COMPS:BGC:1,2011-12-01T09:18:00Z,26.4040,-81.8810,-0.001,1111122 
COMPS,ioos:station:USF.COMPS:BGC:1,2011-12-01T09:24:00Z,26.4040,-81.8810,0.001,1111122 
COMPS,ioos:station:USF.COMPS:BGC:1,2011-12-01T09:30:00Z,26.4040,-81.8810,-0.001,1111122 
COMPS,ioos:station:USF.COMPS:BGC:1,2011-12-01T09:36:00Z,26.4040,-81.8810,0.001,1111122 
COMPS,ioos:station:USF.COMPS:BGC:1,2011-12-01T09:42:00Z,26.4040,-81.8810,0.0,1114422 
COMPS,ioos:station:USF.COMPS:BGC:1,2011-12-01T09:48:00Z,26.4040,-81.8810,-0.003,1111122 
COMPS,ioos:station:USF.COMPS:BGC:1,2011-12-01T09:54:00Z,26.4040,-81.8810,-0.006,1111122 
COMPS,ioos:station:USF.COMPS:BGC:1,2011-12-01T10:00:00Z,26.4040,-81.8810,-0.009,1111122 
COMPS,ioos:station:USF.COMPS:BGC:1,2011-12-01T10:06:00Z,26.4040,-81.8810,-0.011,1111122 
COMPS,ioos:station:USF.COMPS:BGC:1,2011-12-01T10:12:00Z,26.4040,-81.8810,-0.016,1111122 
COMPS,ioos:station:USF.COMPS:BGC:1,2011-12-01T10:18:00Z,26.4040,-81.8810,-0.019,1111122 
COMPS,ioos:station:USF.COMPS:BGC:1,2011-12-01T10:24:00Z,26.4040,-81.8810,-0.023,1111122 
COMPS,ioos:station:USF.COMPS:BGC:1,2011-12-01T10:30:00Z,26.4040,-81.8810,-0.027,1111122 
COMPS,ioos:station:USF.COMPS:BGC:1,2011-12-01T10:36:00Z,26.4040,-81.8810,-0.035,1111122 
COMPS,ioos:station:USF.COMPS:BGC:1,2011-12-01T10:42:00Z,26.4040,-81.8810,-0.035,1111122 
COMPS,ioos:station:USF.COMPS:BGC:1,2011-12-01T10:48:00Z,26.4040,-81.8810,-0.045,1111122 
COMPS,ioos:station:USF.COMPS:BGC:1,2011-12-01T10:54:00Z,26.4040,-81.8810,-0.053,1111122 
COMPS,ioos:station:USF.COMPS:BGC:1,2011-12-01T11:00:00Z,26.4040,-81.8810,-0.06,1111122 
COMPS,ioos:station:USF.COMPS:BGC:1,2011-12-01T11:06:00Z,26.4040,-81.8810,-0.062,1111122 
COMPS,ioos:station:USF.COMPS:BGC:1,2011-12-01T11:12:00Z,26.4040,-81.8810,-0.073,1111122 
COMPS,ioos:station:USF.COMPS:BGC:1,2011-12-01T11:18:00Z,26.4040,-81.8810,-0.081,1111122 
COMPS,ioos:station:USF.COMPS:BGC:1,2011-12-01T11:24:00Z,26.4040,-81.8810,-0.089,1111122 
COMPS,ioos:station:USF.COMPS:BGC:1,2011-12-01T11:30:00Z,26.4040,-81.8810,-0.101,1111122 
COMPS,ioos:station:USF.COMPS:BGC:1,2011-12-01T11:36:00Z,26.4040,-81.8810,-0.106,1111122 
COMPS,ioos:station:USF.COMPS:BGC:1,2011-12-01T11:42:00Z,26.4040,-81.8810,-0.116,1111122 
COMPS,ioos:station:USF.COMPS:BGC:1,2011-12-01T11:48:00Z,26.4040,-81.8810,-0.128,1111122 
COMPS,ioos:station:USF.COMPS:BGC:1,2011-12-01T11:54:00Z,26.4040,-81.8810,-0.137,1111122 
COMPS,ioos:station:USF.COMPS:BGC:1,2011-12-01T12:00:00Z,26.4040,-81.8810,-0.145,1111122 
COMPS,ioos:station:USF.COMPS:BGC:1,2011-12-01T12:06:00Z,26.4040,-81.8810,-0.157,1111122 
COMPS,ioos:station:USF.COMPS:BGC:1,2011-12-01T12:12:00Z,26.4040,-81.8810,-0.166,1111122 
COMPS,ioos:station:USF.COMPS:BGC:1,2011-12-01T12:18:00Z,26.4040,-81.8810,-0.177,1111122 
COMPS,ioos:station:USF.COMPS:BGC:1,2011-12-01T12:24:00Z,26.4040,-81.8810,-0.184,1111122 
COMPS,ioos:station:USF.COMPS:BGC:1,2011-12-01T12:30:00Z,26.4040,-81.8810,-0.194,1111122 
COMPS,ioos:station:USF.COMPS:BGC:1,2011-12-01T12:36:00Z,26.4040,-81.8810,-0.199,1111122 
COMPS,ioos:station:USF.COMPS:BGC:1,2011-12-01T12:42:00Z,26.4040,-81.8810,-0.211,1111122 
COMPS,ioos:station:USF.COMPS:BGC:1,2011-12-01T12:48:00Z,26.4040,-81.8810,-0.218,1111122 
COMPS,ioos:station:USF.COMPS:BGC:1,2011-12-01T12:54:00Z,26.4040,-81.8810,-0.225,1111122 
COMPS,ioos:station:USF.COMPS:BGC:1,2011-12-01T13:00:00Z,26.4040,-81.8810,-0.235,1111122 
COMPS,ioos:station:USF.COMPS:BGC:1,2011-12-01T13:06:00Z,26.4040,-81.8810,-0.246,1111122 
COMPS,ioos:station:USF.COMPS:BGC:1,2011-12-01T13:12:00Z,26.4040,-81.8810,-0.259,1111122 
COMPS,ioos:station:USF.COMPS:BGC:1,2011-12-01T13:18:00Z,26.4040,-81.8810,-0.264,1111122 
COMPS,ioos:station:USF.COMPS:BGC:1,2011-12-01T13:24:00Z,26.4040,-81.8810,-0.275,1111122 
COMPS,ioos:station:USF.COMPS:BGC:1,2011-12-01T13:30:00Z,26.4040,-81.8810,-0.286,1111122 
COMPS,ioos:station:USF.COMPS:BGC:1,2011-12-01T13:36:00Z,26.4040,-81.8810,-0.293,1111122 
COMPS,ioos:station:USF.COMPS:BGC:1,2011-12-01T13:42:00Z,26.4040,-81.8810,-0.301,1111122 
COMPS,ioos:station:USF.COMPS:BGC:1,2011-12-01T13:48:00Z,26.4040,-81.8810,-0.31,1111122 
COMPS,ioos:station:USF.COMPS:BGC:1,2011-12-01T13:54:00Z,26.4040,-81.8810,-0.322,1111122 
COMPS,ioos:station:USF.COMPS:BGC:1,2011-12-01T14:00:00Z,26.4040,-81.8810,-0.332,1111122 
COMPS,ioos:station:USF.COMPS:BGC:1,2011-12-01T14:06:00Z,26.4040,-81.8810,-0.341,1111122 
COMPS,ioos:station:USF.COMPS:BGC:1,2011-12-01T14:12:00Z,26.4040,-81.8810,-0.347,1111122 
COMPS,ioos:station:USF.COMPS:BGC:1,2011-12-01T14:18:00Z,26.4040,-81.8810,-0.359,1111122 
COMPS,ioos:station:USF.COMPS:BGC:1,2011-12-01T14:24:00Z,26.4040,-81.8810,-0.366,1111122 
COMPS,ioos:station:USF.COMPS:BGC:1,2011-12-01T14:30:00Z,26.4040,-81.8810,-0.371,1111122 
COMPS,ioos:station:USF.COMPS:BGC:1,2011-12-01T14:36:00Z,26.4040,-81.8810,-0.383,1111122 
COMPS,ioos:station:USF.COMPS:BGC:1,2011-12-01T14:42:00Z,26.4040,-81.8810,-0.386,1111122 
COMPS,ioos:station:USF.COMPS:BGC:1,2011-12-01T14:48:00Z,26.4040,-81.8810,-0.394,1111122 
COMPS,ioos:station:USF.COMPS:BGC:1,2011-12-01T14:54:00Z,26.4040,-81.8810,-0.401,1111122 
COMPS,ioos:station:USF.COMPS:BGC:1,2011-12-01T15:00:00Z,26.4040,-81.8810,-0.405,1111122 
COMPS,ioos:station:USF.COMPS:BGC:1,2011-12-01T15:06:00Z,26.4040,-81.8810,-0.415,1111122 
COMPS,ioos:station:USF.COMPS:BGC:1,2011-12-01T15:12:00Z,26.4040,-81.8810,-0.421,1111122 
COMPS,ioos:station:USF.COMPS:BGC:1,2011-12-01T15:18:00Z,26.4040,-81.8810,-0.428,1111122 
COMPS,ioos:station:USF.COMPS:BGC:1,2011-12-01T15:24:00Z,26.4040,-81.8810,-0.431,1111122 
COMPS,ioos:station:USF.COMPS:BGC:1,2011-12-01T15:30:00Z,26.4040,-81.8810,-0.43,1111122 
COMPS,ioos:station:USF.COMPS:BGC:1,2011-12-01T15:36:00Z,26.4040,-81.8810,-0.439,1111122 
COMPS,ioos:station:USF.COMPS:BGC:1,2011-12-01T15:42:00Z,26.4040,-81.8810,-0.438,1111122 
COMPS,ioos:station:USF.COMPS:BGC:1,2011-12-01T15:48:00Z,26.4040,-81.8810,-0.438,1111122 
COMPS,ioos:station:USF.COMPS:BGC:1,2011-12-01T15:54:00Z,26.4040,-81.8810,-0.45,1111122 
COMPS,ioos:station:USF.COMPS:BGC:1,2011-12-01T16:00:00Z,26.4040,-81.8810,-0.451,1111122 
COMPS,ioos:station:USF.COMPS:BGC:1,2011-12-01T16:06:00Z,26.4040,-81.8810,-0.452,1111122 
COMPS,ioos:station:USF.COMPS:BGC:1,2011-12-01T16:12:00Z,26.4040,-81.8810,-0.457,1111122 
COMPS,ioos:station:USF.COMPS:BGC:1,2011-12-01T16:18:00Z,26.4040,-81.8810,-0.459,1111122 
COMPS,ioos:station:USF.COMPS:BGC:1,2011-12-01T16:24:00Z,26.4040,-81.8810,-0.456,1111122 
COMPS,ioos:station:USF.COMPS:BGC:1,2011-12-01T16:30:00Z,26.4040,-81.8810,-0.458,1111122 
COMPS,ioos:station:USF.COMPS:BGC:1,2011-12-01T16:36:00Z,26.4040,-81.8810,-0.459,1111122 
COMPS,ioos:station:USF.COMPS:BGC:1,2011-12-01T16:42:00Z,26.4040,-81.8810,-0.455,1111122 
COMPS,ioos:station:USF.COMPS:BGC:1,2011-12-01T16:48:00Z,26.4040,-81.8810,-0.458,1111122 
COMPS,ioos:station:USF.COMPS:BGC:1,2011-12-01T16:54:00Z,26.4040,-81.8810,-0.451,1111122 
COMPS,ioos:station:USF.COMPS:BGC:1,2011-12-02T12:00:00Z,26.4040,-81.8810,-0.104,1111122 
COMPS,ioos:station:USF.COMPS:BGC:1,2011-12-02T12:06:00Z,26.4040,-81.8810,-0.111,1111122 
COMPS,ioos:station:USF.COMPS:BGC:1,2011-12-02T12:12:00Z,26.4040,-81.8810,-0.11,1111122 
COMPS,ioos:station:USF.COMPS:BGC:1,2011-12-02T12:18:00Z,26.4040,-81.8810,-0.119,1111122 
COMPS,ioos:station:USF.COMPS:BGC:1,2011-12-02T12:24:00Z,26.4040,-81.8810,-0.128,1111122 
COMPS,ioos:station:USF.COMPS:BGC:1,2011-12-02T12:30:00Z,26.4040,-81.8810,-0.125,1111122 
COMPS,ioos:station:USF.COMPS:BGC:1,2011-12-02T12:36:00Z,26.4040,-81.8810,-0.13,1111122 
COMPS,ioos:station:USF.COMPS:BGC:1,2011-12-02T12:42:00Z,26.4040,-81.8810,-0.137,1111122 
COMPS,ioos:station:USF.COMPS:BGC:1,2011-12-02T12:48:00Z,26.4040,-81.8810,-0.145,1111122 
COMPS,ioos:station:USF.COMPS:BGC:1,2011-12-02T12:54:00Z,26.4040,-81.8810,-0.153,1111122 
COMPS,ioos:station:USF.COMPS:BGC:1,2011-12-02T13:00:00Z,26.4040,-81.8810,-0.161,1111122 
COMPS,ioos:station:USF.COMPS:BGC:1,2011-12-02T13:06:00Z,26.4040,-81.8810,-0.173,1111122 
COMPS,ioos:station:USF.COMPS:BGC:1,2011-12-02T13:12:00Z,26.4040,-81.8810,-0.174,1111122 
COMPS,ioos:station:USF.COMPS:BGC:1,2011-12-02T13:18:00Z,26.4040,-81.8810,-0.183,1111122 
COMPS,ioos:station:USF.COMPS:BGC:1,2011-12-02T13:24:00Z,26.4040,-81.8810,-0.191,1111122 
COMPS,ioos:station:USF.COMPS:BGC:1,2011-12-02T13:30:00Z,26.4040,-81.8810,-0.206,1111122 
COMPS,ioos:station:USF.COMPS:BGC:1,2011-12-02T13:36:00Z,26.4040,-81.8810,-0.215,1111122 
COMPS,ioos:station:USF.COMPS:BGC:1,2011-12-02T13:42:00Z,26.4040,-81.8810,-0.219,1111122 
COMPS,ioos:station:USF.COMPS:BGC:1,2011-12-02T13:48:00Z,26.4040,-81.8810,-0.237,1111122 
COMPS,ioos:station:USF.COMPS:BGC:1,2011-12-02T13:54:00Z,26.4040,-81.8810,-0.24,1111122 
COMPS,ioos:station:USF.COMPS:BGC:1,2011-12-02T14:00:00Z,26.4040,-81.8810,-0.244,1111122 
COMPS,ioos:station:USF.COMPS:BGC:1,2011-12-02T14:06:00Z,26.4040,-81.8810,-0.246,1111122 
COMPS,ioos:station:USF.COMPS:BGC:1,2011-12-02T14:12:00Z,26.4040,-81.8810,-0.257,1111122 
COMPS,ioos:station:USF.COMPS:BGC:1,2011-12-02T14:18:00Z,26.4040,-81.8810,-0.269,1111122 
COMPS,ioos:station:USF.COMPS:BGC:1,2011-12-02T14:24:00Z,26.4040,-81.8810,-0.281,1111122 
COMPS,ioos:station:USF.COMPS:BGC:1,2011-12-02T14:30:00Z,26.4040,-81.8810,-0.28,1111122 
COMPS,ioos:station:USF.COMPS:BGC:1,2011-12-02T14:36:00Z,26.4040,-81.8810,-0.291,1111122 
COMPS,ioos:station:USF.COMPS:BGC:1,2011-12-02T14:42:00Z,26.4040,-81.8810,-0.297,1111122 
COMPS,ioos:station:USF.COMPS:BGC:1,2011-12-02T14:48:00Z,26.4040,-81.8810,-0.299,1111122 
COMPS,ioos:station:USF.COMPS:BGC:1,2011-12-02T14:54:00Z,26.4040,-81.8810,-0.311,1111122 
COMPS,ioos:station:USF.COMPS:BGC:1,2011-12-02T15:00:00Z,26.4040,-81.8810,-0.322,1111122 
COMPS,ioos:station:USF.COMPS:BGC:1,2011-12-02T15:06:00Z,26.4040,-81.8810,-0.329,1111122 
COMPS,ioos:station:USF.COMPS:BGC:1,2011-12-02T15:12:00Z,26.4040,-81.8810,-0.333,1111122 
COMPS,ioos:station:USF.COMPS:BGC:1,2011-12-02T15:18:00Z,26.4040,-81.8810,-0.337,1111122 
COMPS,ioos:station:USF.COMPS:BGC:1,2011-12-02T15:24:00Z,26.4040,-81.8810,-0.343,1111122 
COMPS,ioos:station:USF.COMPS:BGC:1,2011-12-02T15:30:00Z,26.4040,-81.8810,-0.338,1111122 
COMPS,ioos:station:USF.COMPS:BGC:1,2011-12-02T15:36:00Z,26.4040,-81.8810,-0.34,1111122 
COMPS,ioos:station:USF.COMPS:BGC:1,2011-12-02T15:42:00Z,26.4040,-81.8810,-0.343,1111122 
COMPS,ioos:station:USF.COMPS:BGC:1,2011-12-02T15:48:00Z,26.4040,-81.8810,-0.346,1111122 
COMPS,ioos:station:USF.COMPS:BGC:1,2011-12-02T15:54:00Z,26.4040,-81.8810,-0.344,1111122 
COMPS,ioos:station:USF.COMPS:BGC:1,2011-12-02T16:00:00Z,26.4040,-81.8810,-0.347,1111122 
COMPS,ioos:station:USF.COMPS:BGC:1,2011-12-02T16:06:00Z,26.4040,-81.8810,-0.344,1111122 
COMPS,ioos:station:USF.COMPS:BGC:1,2011-12-02T16:12:00Z,26.4040,-81.8810,-0.355,1111122 
COMPS,ioos:station:USF.COMPS:BGC:1,2011-12-02T16:18:00Z,26.4040,-81.8810,-0.36,1111122 
COMPS,ioos:station:USF.COMPS:BGC:1,2011-12-02T16:24:00Z,26.4040,-81.8810,-0.355,1111122 
COMPS,ioos:station:USF.COMPS:BGC:1,2011-12-02T16:30:00Z,26.4040,-81.8810,-0.364,1111122 
COMPS,ioos:station:USF.COMPS:BGC:1,2011-12-02T16:36:00Z,26.4040,-81.8810,-0.367,1111122 
COMPS,ioos:station:USF.COMPS:BGC:1,2011-12-02T16:42:00Z,26.4040,-81.8810,-0.367,1111122 
COMPS,ioos:station:USF.COMPS:BGC:1,2011-12-02T16:48:00Z,26.4040,-81.8810,-0.369,1111122 
COMPS,ioos:station:USF.COMPS:BGC:1,2011-12-02T16:54:00Z,26.4040,-81.8810,-0.355,1111122 
COMPS,ioos:station:USF.COMPS:BGC:1,2011-12-02T17:00:00Z,26.4040,-81.8810,-0.363,1111122 
COMPS,ioos:station:USF.COMPS:BGC:1,2011-12-02T17:06:00Z,26.4040,-81.8810,-0.362,1111122 
COMPS,ioos:station:USF.COMPS:BGC:1,2011-12-02T17:12:00Z,26.4040,-81.8810,-0.356,1111122 
COMPS,ioos:station:USF.COMPS:BGC:1,2011-12-02T17:18:00Z,26.4040,-81.8810,-0.357,1111122 
COMPS,ioos:station:USF.COMPS:BGC:1,2011-12-02T17:24:00Z,26.4040,-81.8810,-0.369,1111122 
COMPS,ioos:station:USF.COMPS:BGC:1,2011-12-02T17:30:00Z,26.4040,-81.8810,-0.369,1111122 
COMPS,ioos:station:USF.COMPS:BGC:1,2011-12-02T17:36:00Z,26.4040,-81.8810,-0.354,1111122 
COMPS,ioos:station:USF.COMPS:BGC:1,2011-12-02T17:42:00Z,26.4040,-81.8810,-0.358,1111122 
COMPS,ioos:station:USF.COMPS:BGC:1,2011-12-02T17:48:00Z,26.4040,-81.8810,-0.359,1111122 
COMPS,ioos:station:USF.COMPS:BGC:1,2011-12-02T17:54:00Z,26.4040,-81.8810,-0.356,1111122 
COMPS,ioos:station:USF.COMPS:BGC:1,2011-12-02T18:00:00Z,26.4040,-81.8810,-0.352,1111122 
COMPS,ioos:station:USF.COMPS:BGC:1,2011-12-02T18:06:00Z,26.4040,-81.8810,-0.356,1111122 
COMPS,ioos:station:USF.COMPS:BGC:1,2011-12-02T18:12:00Z,26.4040,-81.8810,-0.362,1111122 
COMPS,ioos:station:USF.COMPS:BGC:1,2011-12-02T18:18:00Z,26.4040,-81.8810,-0.35,1111122 
COMPS,ioos:station:USF.COMPS:BGC:1,2011-12-02T18:24:00Z,26.4040,-81.8810,-0.345,1111122 
COMPS,ioos:station:USF.COMPS:BGC:1,2011-12-02T18:30:00Z,26.4040,-81.8810,-0.34,1111122 
COMPS,ioos:station:USF.COMPS:BGC:1,2011-12-02T18:36:00Z,26.4040,-81.8810,-0.338,1111122 
COMPS,ioos:station:USF.COMPS:BGC:1,2011-12-02T18:42:00Z,26.4040,-81.8810,-0.342,1111122 
COMPS,ioos:station:USF.COMPS:BGC:1,2011-12-02T18:48:00Z,26.4040,-81.8810,-0.33,1111122 
COMPS,ioos:station:USF.COMPS:BGC:1,2011-12-02T18:54:00Z,26.4040,-81.8810,-0.325,1111122 
COMPS,ioos:station:USF.COMPS:BGC:1,2011-12-02T19:00:00Z,26.4040,-81.8810,-0.33,1111122 
COMPS,ioos:station:USF.COMPS:BGC:1,2011-12-02T19:06:00Z,26.4040,-81.8810,-0.327,1111122 
COMPS,ioos:station:USF.COMPS:BGC:1,2011-12-02T19:12:00Z,26.4040,-81.8810,-0.322,1111122 
COMPS,ioos:station:USF.COMPS:BGC:1,2011-12-02T19:18:00Z,26.4040,-81.8810,-0.324,1111122 
COMPS,ioos:station:USF.COMPS:BGC:1,2011-12-02T19:24:00Z,26.4040,-81.8810,-0.325,1111122 
COMPS,ioos:station:USF.COMPS:BGC:1,2011-12-02T19:30:00Z,26.4040,-81.8810,-0.316,1111122 
COMPS,ioos:station:USF.COMPS:BGC:1,2011-12-02T19:36:00Z,26.4040,-81.8810,-0.301,1111122 
COMPS,ioos:station:USF.COMPS:BGC:1,2011-12-02T19:42:00Z,26.4040,-81.8810,-0.292,1111122 
COMPS,ioos:station:USF.COMPS:BGC:1,2011-12-02T19:48:00Z,26.4040,-81.8810,-0.289,1111122 
COMPS,ioos:station:USF.COMPS:BGC:1,2011-12-02T19:54:00Z,26.4040,-81.8810,-0.292,1111122 
COMPS,ioos:station:USF.COMPS:BGC:1,2011-12-02T20:00:00Z,26.4040,-81.8810,-0.279,1111122 
COMPS,ioos:station:USF.COMPS:BGC:1,2011-12-02T20:06:00Z,26.4040,-81.8810,-0.277,1111122 
COMPS,ioos:station:USF.COMPS:BGC:1,2011-12-02T20:12:00Z,26.4040,-81.8810,-0.265,1111122 
COMPS,ioos:station:USF.COMPS:BGC:1,2011-12-02T20:18:00Z,26.4040,-81.8810,-0.251,1111122 
COMPS,ioos:station:USF.COMPS:BGC:1,2011-12-02T20:24:00Z,26.4040,-81.8810,-0.24,1111122 
COMPS,ioos:station:USF.COMPS:BGC:1,2011-12-02T20:30:00Z,26.4040,-81.8810,-0.229,1111122 
COMPS,ioos:station:USF.COMPS:BGC:1,2011-12-02T20:36:00Z,26.4040,-81.8810,-0.213,1111122 
COMPS,ioos:station:USF.COMPS:BGC:1,2011-12-02T20:42:00Z,26.4040,-81.8810,-0.214,1111122 
COMPS,ioos:station:USF.COMPS:BGC:1,2011-12-02T20:48:00Z,26.4040,-81.8810,-0.207,1111122 
COMPS,ioos:station:USF.COMPS:BGC:1,2011-12-02T20:54:00Z,26.4040,-81.8810,-0.195,1111122 
COMPS,ioos:station:USF.COMPS:BGC:1,2011-12-02T21:00:00Z,26.4040,-81.8810,-0.179,1111122 
COMPS,ioos:station:USF.COMPS:BGC:1,2011-12-02T21:06:00Z,26.4040,-81.8810,-0.171,1111122 
COMPS,ioos:station:USF.COMPS:BGC:1,2011-12-02T21:12:00Z,26.4040,-81.8810,-0.159,1111122 
COMPS,ioos:station:USF.COMPS:BGC:1,2011-12-02T21:18:00Z,26.4040,-81.8810,-0.154,1111122 
COMPS,ioos:station:USF.COMPS:BGC:1,2011-12-02T21:24:00Z,26.4040,-81.8810,-0.148,1111122 
COMPS,ioos:station:USF.COMPS:BGC:1,2011-12-02T21:30:00Z,26.4040,-81.8810,-0.138,1111122 
COMPS,ioos:station:USF.COMPS:BGC:1,2011-12-02T21:36:00Z,26.4040,-81.8810,-0.131,1111122 
COMPS,ioos:station:USF.COMPS:BGC:1,2011-12-02T21:42:00Z,26.4040,-81.8810,-0.115,1111122 
COMPS,ioos:station:USF.COMPS:BGC:1,2011-12-02T21:48:00Z,26.4040,-81.8810,-0.108,1111122 
COMPS,ioos:station:USF.COMPS:BGC:1,2011-12-02T21:54:00Z,26.4040,-81.8810,-0.106,1111122 
COMPS,ioos:station:USF.COMPS:BGC:1,2011-12-02T22:00:00Z,26.4040,-81.8810,-0.098,1111122 
COMPS,ioos:station:USF.COMPS:BGC:1,2011-12-02T22:06:00Z,26.4040,-81.8810,-0.088,1111122 
COMPS,ioos:station:USF.COMPS:BGC:1,2011-12-02T22:12:00Z,26.4040,-81.8810,-0.082,1111122 
COMPS,ioos:station:USF.COMPS:BGC:1,2011-12-02T22:18:00Z,26.4040,-81.8810,-0.069,1111122 
COMPS,ioos:station:USF.COMPS:BGC:1,2011-12-02T22:24:00Z,26.4040,-81.8810,-0.057,1111122 
COMPS,ioos:station:USF.COMPS:BGC:1,2011-12-02T22:30:00Z,26.4040,-81.8810,-0.047,1111122 
COMPS,ioos:station:USF.COMPS:BGC:1,2011-12-02T22:36:00Z,26.4040,-81.8810,-0.032,1111122 
COMPS,ioos:station:USF.COMPS:BGC:1,2011-12-02T22:42:00Z,26.4040,-81.8810,-0.035,1111122 
COMPS,ioos:station:USF.COMPS:BGC:1,2011-12-02T22:48:00Z,26.4040,-81.8810,-0.03,1111122 
COMPS,ioos:station:USF.COMPS:BGC:1,2011-12-02T22:54:00Z,26.4040,-81.8810,-0.019,1111122 
COMPS,ioos:station:USF.COMPS:BGC:1,2011-12-02T23:00:00Z,26.4040,-81.8810,-0.013,1111122 
COMPS,ioos:station:USF.COMPS:BGC:1,2011-12-02T23:06:00Z,26.4040,-81.8810,-0.005,1111122 
COMPS,ioos:station:USF.COMPS:BGC:1,2011-12-02T23:12:00Z,26.4040,-81.8810,0.008,1111122 
COMPS,ioos:station:USF.COMPS:BGC:1,2011-12-02T23:18:00Z,26.4040,-81.8810,0.019,1111122 
COMPS,ioos:station:USF.COMPS:BGC:1,2011-12-02T23:24:00Z,26.4040,-81.8810,0.024,1111122 
COMPS,ioos:station:USF.COMPS:BGC:1,2011-12-02T23:30:00Z,26.4040,-81.8810,0.033,1111122 
COMPS,ioos:station:USF.COMPS:BGC:1,2011-12-02T23:36:00Z,26.4040,-81.8810,0.036,1111122 
COMPS,ioos:station:USF.COMPS:BGC:1,2011-12-02T23:42:00Z,26.4040,-81.8810,0.043,1111122 
COMPS,ioos:station:USF.COMPS:BGC:1,2011-12-02T23:48:00Z,26.4040,-81.8810,0.042,1111122 